Regional Weather Roundup
Issued by NWS Albany, NY

Home | Current Version | Previous Version | Text Only | Print | Product List | Glossary On
Versions: 1 2 3 4 5 6 7 8 9 10 11 12 13 14 15 16 17 18 19 20 21 22 23 24 25 26 27 28 29 30 31 32 33 34 35 36 37 38 39 40 41 42 43 44 45 46 47 48 49 50
000
ASUS41 KALY 302010
RWRALY

NEW YORK STATE HOURLY WEATHER ROUNDUP
NATIONAL WEATHER SERVICE ALBANY NY
300 PM EST FRI JAN 30 2015

NOTE: "FAIR" INDICATES FEW OR NO CLOUDS BELOW 12,000 FEET WITH NO
SIGNIFICANT WEATHER AND/OR NO OBSTRUCTIONS TO VISIBILITY.

NYZ032-033-038>043-046>054-057>066-NYZ062>081-302100-
EAST


CITY           SKY/WX    TMP DP  RH WIND       PRES   REMARKS
ALBANY         PTSUNNY   28  15  58 NW26G33   29.86R WCI  13
GLENS FALLS    CLOUDY    27  14  58 N16G22    29.86R WCI  15
POUGHKEEPSIE   CLOUDY    36  17  46 NW16      29.83R WCI  26
NEWBURGH       PTSUNNY   34  18  51 NW23G35   29.83R WCI  22
MONTGOMERY     LGT RAIN  33  16  49 N20G33    29.83R WCI  21
WHITE PLAINS   PTSUNNY   34  19  54 W23G32    29.79R WCI  22
ISLIP          CLOUDY    35  24  64 NW15G23   29.77S WCI  25
NEW YORK CITY  PTSUNNY   37  21  52 NW22G28   29.83R WCI  26
CENTRAL PARK   PTSUNNY   37  17  44 NW15G29   29.85R WCI  28
$$

NYZ005>009-017-018-044>046-055-056-302100-
CENTRAL


CITY           SKY/WX    TMP DP  RH WIND       PRES   REMARKS
FULTON         SNOW      16  10  77 NW14      30.10R VSB 1/2 WCI   2
SYRACUSE       LGT SNOW  16  13  88 NW13      30.08R VSB 3/4 WCI   2
ROME           CLOUDY    18   9  68 W21G26    30.02R WCI   1
ELMIRA         LGT SNOW  19  10  68 NW17G25   30.06R WCI   4
BINGHAMTON     SNOW      17  13  84 NW17G25   29.93R VSB 1/2 WCI   1
MONTICELLO     CLOUDY    27  16  63 NW28G38   29.82R WCI  11
$$

NYZ026>034-041>043-302100-
NORTH


CITY           SKY/WX    TMP DP  RH WIND       PRES   REMARKS
WATERTOWN      CLOUDY    16   3  56 NW10      30.11R WCI   4
FORT DRUM      NOT AVBL
MASSENA        PTSUNNY   13   0  56 NW16G26   30.07R WCI  -3
SARANAC LAKE   LGT SNOW   8   2  76 VRB5      29.87R WCI   0
PLATTSBURGH    CLOUDY    17   5  59 NW13G24   29.94R WCI   4
$$

NYZ001>004-010>016-019>021-302100-
WEST


CITY           SKY/WX    TMP DP  RH WIND       PRES   REMARKS
NIAGARA FALLS  FLURRIES  14   6  70 NW21G32   30.26R WCI  -4
BUFFALO        LGT SNOW  15   6  67 NW17G25   30.24R BLWGSNOWWCI  -1
DUNKIRK        CLOUDY    14   7  73 W15G25    30.29R WCI  -1
JAMESTOWN      CLOUDY    10   1  67 NW16G25   30.17R WCI  -7
WELLSVILLE     LGT SNOW  13   4  67 NW25G33   30.04R WCI  -7
ROCHESTER      LGT SNOW  15   6  67 NW22G30   30.17R BLWGSNOWWCI  -3
PENN YAN       LGT SNOW  15   7  70 NW9G22    30.10R WCI   3
$$

             KEY
       WCI = WIND CHILL INDEX
       VSB = VISIBILITY
       HX  = HEAT INDEX
$$



USA.gov is the U.S. government's official web portal to all federal, state and local government web resources and services.